Tracking 19570 objects as of 22-Feb-2019
HD Live streaming from Space Station
objects crossing your sky now

ST5-A

Track ST5-A now!
10-day predictions
ST5-A is classified as:


NORAD ID: 28980
Int'l Code: 2006-008A
Perigee: 311.3 km
Apogee: 3,717.2 km
Inclination: 105.5 °
Period: 127.4 minutes
Semi major axis: 8385 km
RCS: 0.3025 m2 (medium)
Launch date: March 22, 2006
Source: United States (US)
Launch site: Pegasus launched from Western Range Air Space (WRAS)
aabbcc
Your satellite tracking list
Your tracking list is empty




NASA's NSSDC Master Catalog

Two Line Element Set (TLE):
1 28980U 06008A   19051.91022875 +.00002546 +00000-0 +12621-3 0  9993
2 28980 105.5275 304.7657 2030872 092.5410 290.8058 11.30653478512490
Source of the keplerian elements: AFSPC